Date,TemperatureHighF,TemperatureAvgF,TemperatureLowF,DewpointHighF,DewpointAvgF,DewpointLowF,HumidityHigh,HumidityAvg,HumidityLow,PressureMaxIn,PressureMinIn,WindSpeedMaxMPH,WindSpeedAvgMPH,GustSpeedMaxMPH,PrecipitationSumIn
2013-9-1,87.0,76.1,67.0,78.9,72.9,67.0,100,91,63,29.95,29.78,8,2,13,0.16
2013-9-2,89.0,76.7,67.0,76.5,69.0,64.6,100,80,50,29.97,29.85,9,2,12,0.00
2013-9-3,79.0,70.3,62.0,68.8,60.3,53.7,100,74,45,30.12,29.94,10,3,12,0.00
2013-9-4,85.0,69.1,54.0,66.1,59.8,54.0,100,77,42,30.23,30.07,7,1,9,0.00
2013-9-5,89.0,71.5,58.0,69.5,62.5,58.0,100,78,40,30.27,30.14,8,1,9,0.00
2013-9-6,90.0,74.3,63.0,70.7,64.6,59.3,100,75,41,30.28,30.12,7,2,9,0.00
2013-9-7,88.0,74.7,62.0,72.7,67.0,61.7,100,80,48,30.16,30.01,7,1,11,0.00
2013-9-8,89.0,75.8,67.0,78.4,70.2,62.8,100,85,42,30.07,29.98,7,1,10,0.07
2013-9-9,95.0,79.7,67.0,78.4,70.6,64.3,99,77,45,30.11,30.01,9,2,13,0.00
2013-9-10,95.0,81.2,72.0,80.1,75.4,71.4,100,85,49,30.22,30.07,9,2,15,0.00
2013-9-11,72.0,71.6,71.0,72.0,71.6,71.0,100,100,100,30.17,30.16,4,1,6,0.00
2013-9-13,64.0,55.4,51.0,54.4,51.2,47.5,100,88,56,30.07,30.06,4,0,4,0.00
2013-9-14,75.0,58.7,44.0,54.0,48.6,44.0,100,74,37,30.21,30.06,10,1,10,0.00
2013-9-15,81.0,63.1,44.0,60.2,52.4,44.0,100,73,37,30.17,30.05,13,1,13,0.00
2013-9-16,71.0,65.6,58.0,64.2,61.8,58.0,100,88,71,30.27,30.08,13,3,13,0.00
2013-9-17,77.0,63.7,53.0,59.7,55.6,51.2,100,79,42,30.31,30.14,13,2,13,0.00
2013-9-18,79.0,66.5,56.0,74.7,65.2,56.0,100,96,76,30.17,30.08,10,1,10,0.03
2013-9-19,83.0,71.6,66.0,79.4,70.9,66.0,100,98,85,30.14,30.00,12,2,12,0.85
2013-9-20,83.0,71.8,67.0,76.4,70.7,67.0,100,97,72,30.01,29.85,9,1,10,0.17
2013-9-21,73.0,63.6,52.0,67.0,57.5,49.9,100,84,48,29.89,29.79,8,2,12,0.21
2013-9-22,73.0,58.7,45.0,58.7,51.9,45.0,100,82,47,30.04,29.88,11,2,12,0.00
2013-9-23,75.0,59.2,44.0,57.3,50.9,44.0,100,78,43,30.12,29.97,12,2,12,0.00
2013-9-24,82.0,65.0,51.0,66.7,58.6,51.0,100,82,51,30.03,29.90,10,2,11,0.00
2013-9-25,82.0,69.5,60.0,67.3,63.6,59.4,100,84,53,29.95,29.86,11,2,11,0.00
2013-9-26,83.0,66.1,53.0,62.0,56.0,48.9,100,75,33,30.10,29.92,9,1,9,0.00
2013-9-27,85.0,66.0,51.0,65.0,56.2,51.0,100,76,38,30.23,30.05,11,1,12,0.00
2013-9-28,86.0,67.3,51.0,65.0,58.2,51.0,100,77,36,30.20,30.05,7,1,12,0.00
2013-9-29,64.0,62.1,58.0,64.0,62.1,57.0,100,100,97,30.05,30.00,9,1,9,0.32
2013-9-30,72.0,64.6,62.0,71.0,64.3,60.5,100,99,88,30.03,29.98,7,1,7,0.04